Volver al catálogo

ARIANE 1 DEB

LostGTO
NORAD 40779·DEBRIS·🇫🇷 France

Lanzado Dec 24, 1979 desde Guiana Space Centre

Loading…

TLE

ObsoletoSource: Space-Track

Época: Jun 26, 2026, 02:59 UTC

1 40779U 79104AG  26177.12443822 -.00000022  00000-0  19230-2 0  9999
2 40779  18.2330 167.5014 7313442 279.7038  11.6250  2.07852052 32652

Sigue ARIANE 1 DEB en tiempo real con AllMySat

Download on the App Store